DW0835 Weather Reports


Display with metric or nautical units.
time (UTC)temp
F
wind
direction
speed
MPH
gust
MPH
rain 1hr
in
rain 24hr
in
rain mn
in
humidity
%
barometer
mb
20180718143210 74 123 0.0 4.0 0.00 0.00 0.00 60 1020.5
20180718141702 74 103 0.0 2.0 0.00 0.00 0.00 59 1020.5
20180718140158 74 75 0.0 2.0 0.00 0.00 0.00 61 1020.7
20180718134657 72 88 0.0 3.0 0.00 0.00 0.00 64 1020.8
20180718133152 73 100 0.0 3.0 0.00 0.00 0.00 62 1020.6
20180718131645 72 88 0.0 1.0 0.00 0.00 0.00 65 1020.8
20180718130147 71 94 0.0 3.0 0.00 0.00 0.00 67 1020.7
20180718124640 68 104 0.0 3.0 0.00 0.00 0.00 72 1020.7
20180718123134 66 44 0.0 1.0 0.00 0.00 0.00 80 1020.6
20180718121628 65 32 0.0 2.0 0.00 0.00 0.00 85 1020.5
20180718120126 64 61 0.0 0.0 0.00 0.00 0.00 87 1020.7
20180718114622 63 61 0.0 0.0 0.00 0.00 0.00 89 1020.7
20180718113123 61 61 0.0 0.0 0.00 0.00 0.00 90 1020.5
20180718111620 61 61 0.0 0.0 0.00 0.00 0.00 90 1020.7
20180718110118 60 61 0.0 0.0 0.00 0.00 0.00 89 1020.7
20180718104616 60 61 0.0 0.0 0.00 0.00 0.00 89 1020.8
20180718103114 60 61 0.0 0.0 0.00 0.00 0.00 88 1020.8
20180718101614 61 61 0.0 0.0 0.00 0.00 0.00 88 1020.5
20180718100113 61 61 0.0 0.0 0.00 0.00 0.00 88 1020.4
20180718094610 61 61 0.0 0.0 0.00 0.00 0.00 87 1020.5
20180718093109 61 61 0.0 0.0 0.00 0.00 0.00 87 1020.4
20180718091607 61 61 0.0 0.0 0.00 0.00 0.00 86 1020.3
20180718090109 62 61 0.0 0.0 0.00 0.00 0.00 86 1020.2
20180718084603 62 61 0.0 0.0 0.00 0.00 0.00 85 1020.2
20180718083103 62 61 0.0 0.0 0.00 0.00 0.00 85 1020.2
20180718081600 63 61 0.0 0.0 0.00 0.00 0.00 85 1020.1
20180718080101 63 61 0.0 0.0 0.00 0.00 0.00 84 1020.0
20180718074602 63 61 0.0 0.0 0.00 0.00 0.00 84 1019.8
20180718073102 64 61 0.0 0.0 0.00 0.00 0.00 84 1019.9
20180718071600 64 61 0.0 0.0 0.00 0.00 0.00 84 1019.9
20180718070058 63 61 0.0 0.0 0.00 0.00 0.00 85 1019.8
20180718064556 63 61 0.0 0.0 0.00 0.00 0.00 86 1019.7
20180718063058 63 61 0.0 0.0 0.00 0.00 0.00 86 1019.7
20180718061557 63 61 0.0 0.0 0.00 0.00 0.00 86 1019.7
20180718060055 63 61 0.0 0.0 0.00 0.00 0.00 85 1019.7
20180718054554 63 61 0.0 0.0 0.00 0.00 0.00 84 1019.7
20180718053054 64 61 0.0 0.0 0.00 0.00 0.00 84 1019.8
20180718051552 64 61 0.0 0.0 0.00 0.00 0.00 82 1019.7
20180718050052 64 61 0.0 0.0 0.00 0.00 0.00 82 1019.7
20180718044549 64 61 0.0 0.0 0.00 0.00 0.00 82 1019.6
20180718043047 65 61 0.0 0.0 0.00 0.00 0.00 82 1019.6
20180718041548 65 61 0.0 0.0 0.00 0.00 0.00 81 1019.6
20180718040044 65 61 0.0 0.0 0.00 0.00 0.00 81 1019.7
20180718034544 65 61 0.0 0.0 0.00 0.00 0.00 80 1019.6
20180718033041 65 61 0.0 0.0 0.00 0.00 0.00 79 1019.6
20180718031539 66 61 0.0 0.0 0.00 0.00 0.00 79 1019.4
20180718030038 66 61 0.0 0.0 0.00 0.00 0.00 78 1019.5
20180718024539 66 61 0.0 0.0 0.00 0.00 0.00 78 1019.4
20180718023035 66 61 0.0 0.0 0.00 0.00 0.00 76 1019.2
20180718021534 66 53 0.0 0.0 0.00 0.00 0.00 76 1019.1
20180718020034 66 50 0.0 0.0 0.00 0.00 0.00 77 1019.0
20180718014532 67 105 0.0 0.0 0.00 0.00 0.00 76 1019.0
20180718013032 67 33 0.0 2.0 0.00 0.00 0.00 74 1018.9
20180718011532 67 22 0.0 3.0 0.00 0.00 0.00 74 1018.8
20180718010034 67 132 0.0 3.0 0.00 0.00 0.00 73 1018.8
20180718004533 68 98 0.0 1.0 0.00 0.00 0.00 74 1018.9
20180718003031 68 15 0.0 2.0 0.00 0.00 0.00 73 1019.0
20180718001530 68 144 0.0 5.0 0.00 0.00 0.00 73 1018.8
20180718000033 69 71 0.0 2.0 0.00 0.00 0.00 72 1018.7
20180717234529 69 13 0.0 6.0 0.00 0.00 0.00 72 1018.7
20180717233033 69 360 0.0 3.0 0.00 0.00 0.00 72 1018.9
20180717231528 70 95 0.0 5.0 0.00 0.00 0.00 71 1018.7
20180717230028 70 82 0.0 3.0 0.00 0.00 0.00 70 1018.8
20180717224530 70 88 0.0 3.0 0.00 0.00 0.00 70 1018.7
20180717223028 71 56 0.0 4.0 0.00 0.00 0.00 69 1018.6
20180717221520 72 115 0.0 4.0 0.00 0.00 0.00 69 1018.7
20180717220015 72 36 0.0 4.0 0.00 0.00 0.00 67 1018.7
20180717214517 73 55 0.0 6.0 0.00 0.00 0.00 67 1018.6
20180717213016 73 31 1.0 7.0 0.00 0.00 0.00 67 1018.6
20180717211516 74 86 1.0 7.0 0.00 0.00 0.00 65 1018.7
20180717210014 74 27 0.0 7.0 0.00 0.00 0.00 64 1018.8
20180717204515 74 86 0.0 6.0 0.00 0.00 0.00 65 1018.9
20180717203013 74 144 0.0 4.0 0.00 0.00 0.00 63 1019.0
20180717201512 74 103 1.0 5.0 0.00 0.00 0.00 61 1018.9
20180717200012 74 346 0.0 7.0 0.00 0.00 0.00 62 1018.8
20180717194514 74 69 0.0 5.0 0.00 0.00 0.00 64 1018.9
20180717193011 74 105 2.0 8.0 0.00 0.00 0.00 60 1018.9
20180717191510 73 360 0.0 6.0 0.00 0.00 0.00 66 1018.9
20180717190012 74 96 0.0 9.0 0.00 0.00 0.00 65 1018.8
20180717184508 74 92 1.0 7.0 0.00 0.00 0.00 62 1018.8
20180717183008 75 5 0.0 6.0 0.00 0.00 0.00 63 1018.7
20180717181507 75 41 0.0 5.0 0.00 0.00 0.00 62 1018.6
20180717180007 76 331 0.0 6.0 0.00 0.05 0.00 63 1018.6
20180717174505 76 65 0.0 5.0 0.00 0.05 0.00 62 1018.7
20180717173008 76 5 0.0 6.0 0.00 0.05 0.00 59 1018.6
20180717171503 75 13 1.0 7.0 0.00 0.05 0.00 58 1018.5
20180717170002 75 346 0.0 3.0 0.00 0.05 0.00 59 1018.6
20180717164459 75 114 0.0 3.0 0.00 0.05 0.00 61 1018.8
20180717162958 74 26 0.0 5.0 0.00 0.05 0.00 60 1018.7
20180717161456 74 17 0.0 7.0 0.00 0.05 0.00 58 1018.8
20180717155954 73 16 0.0 7.0 0.00 0.05 0.00 62 1018.6
20180717154449 71 174 0.0 7.0 0.00 0.05 0.00 63 1018.7
20180717152946 72 16 0.0 4.0 0.00 0.05 0.00 64 1018.7
20180717151441 71 347 0.0 5.0 0.00 0.05 0.00 66 1018.5
20180717145939 72 342 0.0 7.0 0.00 0.05 0.00 62 1018.4
20180717144434 72 331 0.0 3.0 0.00 0.05 0.00 64 1018.2